Location: Newark
(51.2625°N, 13.3939°E)
Time: 03:33:41
(UTC+00:00)

Explorer 7 - Pass Details

Date: 13 November 2019
Orbit: 485 x 680 km, 50.3° (Epoch: 07 December)

Event Time Altitude Azimuth Distance (km) Brightness Sun altitude
Rises 01:56:41 0° 227° (SW) 2,847 - -40.5°
Reaches altitude 10° 01:59:09 10° 219° (SW) 1,911 - -40.1°
Maximum altitude 02:03:09 36° 153° (SSE) 904 - -39.5°
Drops below altitude 10° 02:06:56 10° 86° (E) 1,806 - -39.0°
Exits shadow 02:07:30 - 83° (E) 2,019 10.4 -38.9°
Sets 02:09:12 0° 78° (ENE) 2,667 11.2 -38.7°
